Tracking 22882 objects as of 18-Apr-2021
HD Live streaming from Space Station
objects crossing your sky now

GEOSAT

Track GEOSAT now!
10-day predictions
GEOSAT is classified as:


NORAD ID: 15595
Int'l Code: 1985-021A
Perigee: 770.6 km
Apogee: 772.6 km
Inclination: 108.0 °
Period: 100.1 minutes
Semi major axis: 7142 km
RCS: 9.5926 m2 (large)
Launch date: March 13, 1985
Source: United States (US)
Launch site: AIR FORCE WESTERN TEST RANGE (AFWTR)
aabbcc
Your satellite tracking list
Your tracking list is empty




NASA's NSSDC Master Catalog

Two Line Element Set (TLE):
1 15595U 85021A   21107.85324052 -.00000069  00000-0  21908-4 0  9991
2 15595 108.0439 120.8132 0001339 260.3673  99.7317 14.38198026891738
Source of the keplerian elements: AFSPC